Location: Gu�tanj
(46.5431°N, 14.9692°E)
Time: 20:38:11
(UTC+00:00)

USA 305 - Pass Details

Date: 03 March 2021
Orbit: 567 x 574 km, 54.0° (Epoch: 22 April)

Event Time Altitude Azimuth Distance (km) Brightness Sun altitude
Rises 18:05:10 0° 283° (WNW) 2,780 8.3 -13.9°
Reaches altitude 10° 18:07:39 10° 295° (WNW) 1,881 6.7 -14.3°
Maximum altitude 18:11:26 30° 357° (N) 1,047 4.3 -14.9°
Enters shadow 18:14:04 16° 49° (NE) 1,506 4.7 -15.4°
